Location: ???????
(54.9996°N, 37.9529°E)
Time: 02:59:27
(UTC+00:00)

Sich 1 - Visible Passes

Search period start: 25 July 2024 00:00
Search period end: 04 August 2024 00:00
Orbit: 582 x 612 km, 82.5° (Epoch: 24 July)

Date Brightness Start Highest point End Pass type
(mag) Time Alt. Az. Time Alt. Az. Time Alt. Az.
25 Jul 3.2 00:23:26 10° S 00:27:41 75° E 00:31:57 10° NNE visible
25 Jul 5.5 22:58:44 10° ESE 23:01:19 16° E 23:03:52 10° NE visible
26 Jul 3.0 00:33:55 10° SSW 00:38:10 76° WNW 00:42:27 10° N visible
26 Jul 5.0 23:08:18 10° SE 23:11:35 22° E 23:14:52 10° NE visible
27 Jul 4.5 23:18:09 10° SSE 23:21:54 31° E 23:25:39 10° NNE visible
28 Jul 3.9 23:28:20 11° SSE 23:32:15 44° E 23:36:18 10° NNE visible
29 Jul 3.3 23:38:57 13° S 23:42:39 65° E 23:46:51 10° NNE visible
30 Jul 5.5 22:14:09 10° ESE 22:16:18 14° E 22:18:27 10° NE visible
30 Jul 2.9 23:49:34 15° SSW 23:53:05 86° WNW 23:57:20 10° N visible
31 Jul 5.1 22:23:30 10° SE 22:26:32 19° E 22:29:33 10° NE visible
01 Aug 3.2 00:00:09 15° SSW 00:03:32 59° WNW 00:07:45 10° N visible
01 Aug 4.6 22:34:00 14° SE 22:36:47 27° E 22:40:22 10° NNE visible
02 Aug 3.6 00:10:42 14° SW 00:14:03 41° WNW 00:18:04 10° N visible
02 Aug 4.0 22:44:32 19° SSE 22:47:05 38° E 22:51:01 10° NNE visible
03 Aug 4.1 00:21:15 12° SW 00:24:35 29° WNW 00:28:20 10° N visible
03 Aug 3.4 22:55:03 24° SSE 22:57:24 56° E 23:01:34 10° NNE visible
